Regional Weather Roundup
Issued by NWS

Home | Current Version | Previous Version | Text Only | Print | Product List | Glossary Off
Versions: 1 2 3 4 5 6 7 8 9 10 11 12 13 14 15 16 17 18 19 20 21 22 23 24 25 26 27 28 29 30 31 32 33 34 35 36 37 38 39 40 41 42 43 44 45 46 47 48 49 50

000
ASUS43 KLOT 152306
RWRIL

ILLINOIS REGIONAL WEATHER ROUNDUP
NATIONAL WEATHER SERVICE CHICAGO/ROMEOVILLE IL
600 PM CDT MON SEP 15 2014

NOTE: "FAIR" INDICATES FEW OR NO CLOUDS BELOW 12,000 FEET WITH NO
SIGNIFICANT WEATHER AND/OR OBSTRUCTIONS TO VISIBILITY.

* THESE STATIONS ARE NOT UNDER NWS QUALITY CONTROL. THEY ALSO MAY NOT
  REPORT WEATHER SUCH AS PRECIPITATION OR FOG.

ILZ001-002-007-009-015-016-024-160000-
NORTHWEST ILLINOIS

CITY           SKY/WX    TMP DP  RH WIND       PRES   REMARKS
MOLINE         CLOUDY    58  51  78 N12       30.14R
STERLING*      CLOUDY    55  52  88 NE8       30.14R
SAVANNA*       MOSUNNY   56  48  73 N10       30.16R
$$

ILZ003-004-008-010-011-017-018-160000-
NORTH CENTRAL ILLINOIS

CITY           SKY/WX    TMP DP  RH WIND       PRES   REMARKS
ROCKFORD       CLOUDY    55  50  83 N10       30.16R
FREEPORT*      PTSUNNY   54  50  89 N7        30.17R
ROCHELLE*      CLOUDY    54  52  92 N6        30.13R
DE KALB*       CLOUDY    53  52  94 N6        30.13R
PERU*          CLOUDY    57  55  93 NE9       30.12R
$$

ILZ005-006-012>014-019>023-160000-
NORTHEAST ILLINOIS

CITY           SKY/WX    TMP DP  RH WIND       PRES   REMARKS
CHICAGO-OHARE  CLOUDY    59  53  80 NW5       30.10R
CHICAGO-MIDWAY CLOUDY    59  54  83 NW5       30.10R
AURORA         PTSUNNY   58  53  84 NW3       30.12R
LANSING*       RAIN      55  54  97 CALM      30.12R
JOLIET*        CLOUDY    55  53  94 CALM      30.12R FOG
WAUKEGAN       CLOUDY    54  51  90 N7        30.11R
DUPAGE AIRPORT LGT RAIN  58  53  84 N6        30.11R
KANKAKEE*      LGT RAIN  55  54  97 N3        30.11R
WHEELING       CLOUDY    57  52  83 N10       30.12R
MORRIS*        CLOUDY    56  56 100 CALM      30.11R FOG
ROMEOVILLE*    CLOUDY    55  55  99 CALM      30.12R
NORTHERLY ISL    N/A     59  51  75 N3          N/A
$$

LMZ740>746-160000-
SOUTHERN LAKE MICHIGAN

STATION/POSITION SKY/WX   TEMP    WIND        PRES    VSBY  WAVE
                          AIR SEA DIR/SP/G                  HT/PER
                          (F)     (DEG/KT/KT) (MB)    (MI)  (FT/S)
SOUTHERN BUOY              56 64  360/ 16/ 17 1019.3R         3/ 4
WAUKEGAN HARBOR            55      10/ 11/ 15   N/A
HARRISON CRIB              58     300/  5/  6   N/A
BURNHAM HARBOR             59     350/  2/  9   N/A
CALUMET HARBOR             57     240/  2/  4 1018.1R
MICHIGAN CITY              56     280/  9/ 12   N/A
MICHIGAN CITY 6N           57 64  250/  4/  6   N/A           1/ 3
ST. JOSEPH                 60 66  320/ 12/ 16   N/A           2/ 4
$$

ILZ025>027-034>036-040-047-049-050-058-095>099-160000-
WEST-CENTRAL ILLINOIS

CITY           SKY/WX    TMP DP  RH WIND       PRES   REMARKS
QUINCY         PTSUNNY   64  58  80 N7        30.11R
GALESBURG*     CLOUDY    59  55  85 N17G24    30.12R
MACOMB*        CLOUDY    64  58  80 NE3       30.12R
JACKSONVILLE*  CLOUDY    63  61  94 NW8       30.11R
PITTSFIELD*    CLOUDY    63  59  86 NW8       30.12R
$$

ILZ028>032-037-038-041>044-048-051>054-059>061-160000-
CENTRAL ILLINOIS

CITY           SKY/WX    TMP DP  RH WIND       PRES   REMARKS
PONTIAC        CLOUDY    59  59 100 N7        30.10R FOG
DECATUR        LGT RAIN  60  59  96 W5        30.09R FOG
PEORIA         CLOUDY    61  57  87 VRB5      30.11R
LACON*         PTSUNNY   57  55  91 N3        30.10R
LINCOLN*       CLOUDY    60  59  95 NW3       30.07R
SPRINGFIELD    CLOUDY    62  60  93 NW6       30.09R
TAYLORVILLE    CLOUDY    59  59 100 NW3       30.08R FOG
$$

ILZ033-039-045-046-055>057-062-063-160000-
EAST-CENTRAL ILLINOIS

CITY           SKY/WX    TMP DP  RH WIND       PRES   REMARKS
CHAMPAIGN      LGT RAIN  58  58 100 W3        30.08R FOG
DANVILLE*      RAIN      55  55  99 CALM      30.06R
RANTOUL*       DRIZZLE   58  56  90 CALM      30.09R
MATTOON        CLOUDY    59  58  96 S3        30.05F FOG
PARIS*         CLOUDY    58  58  98 CALM      30.07S
$$

ILZ079-100>102-160000-
SOUTHWEST ILLINOIS

CITY           SKY/WX    TMP DP  RH WIND       PRES   REMARKS
ALTON          DRIZZLE   66  64  94 NW6       30.07R
BELLEVILLE     CLOUDY    71  70  99 CALM      30.05S
CAHOKIA*       CLOUDY    72  67  84 W5        30.06R
SPARTA*        RAIN      70  68  95 CALM      30.07S
$$

ILZ064>066-069>071-074>076-080>082-084>086-088>090-092>094-160000-
SOUTH-CENTRAL ILLINOIS

CITY           SKY/WX    TMP DP  RH WIND       PRES   REMARKS
CARBONDALE     CLOUDY    74  64  71 S8        30.05R
CAIRO*         PTSUNNY   76  63  65 S9        30.07S
EFFINGHAM*     LGT RAIN  64  57  78 SE6       30.05F
MARION         PTSUNNY   75  64  69 S9        30.06R
MT. VERNON     CLOUDY    70  63  78 CALM      30.06S
CENTRALIA*     CLOUDY    67  64  88 CALM      30.06S
SALEM*         DRIZZLE   69  66  92 S6        30.06F
METROPOLIS*    PTSUNNY   76  63  65 SW8       30.07R
$$

ILZ067-068-072-073-078-083-087-091-160000-
SOUTHEAST ILLINOIS

CITY           SKY/WX    TMP DP  RH WIND       PRES   REMARKS
LAWRENCEVILLE  CLOUDY    67  58  72 N7        30.08R
FLORA*         SUNNY     68  62  83 S3        30.06S
FAIRFIELD*     CLOUDY   N/A N/A N/A CALM      30.06R
HARRISBURG*    PTSUNNY   74  62  67 S7        30.07R
ROBINSON*      CLOUDY    62  61  96 E5        30.08F
CARMI*         CLOUDY    75  62  64 S5        30.05S
$$

ABBREVIATIONS USED IN REMARKS
   TC - TEMPERATURE IN CELSIUS
  WCI - WIND CHILL INDEX
   HX - HEAT INDEX
  VSB - VISIBILITY
$$



USA.gov is the U.S. government's official web portal to all federal, state and local government web resources and services.